Time,TemperatureF,DewpointF,PressureIn,WindDirection,WindDirectionDegrees,WindSpeedMPH,WindSpeedGustMPH,Humidity,HourlyPrecipIn,Conditions,Clouds,dailyrainin,SoftwareType,DateUTC
2013-12-22 00:04:00,23.0,21.0,29.91,South,180,0.0,-999.0,92,-99.99,,,0.00,Acu-Link.com,2013-12-22 08:04:00,
2013-12-22 00:19:00,21.2,20.5,29.91,South,180,0.0,-999.0,97,-99.99,,,0.00,Acu-Link.com,2013-12-22 08:19:00,
2013-12-22 00:34:00,21.2,19.7,29.92,South,180,0.0,-999.0,94,-99.99,,,0.00,Acu-Link.com,2013-12-22 08:34:00,
2013-12-22 00:49:00,21.2,20.5,29.92,South,180,0.0,-999.0,97,-99.99,,,0.00,Acu-Link.com,2013-12-22 08:49:00,
2013-12-22 01:04:00,21.2,20.5,29.92,South,180,0.0,-999.0,97,-99.99,,,0.00,Acu-Link.com,2013-12-22 09:04:00,
2013-12-22 01:19:00,21.2,20.5,29.92,West,270,0.0,-999.0,97,-99.99,,,0.00,Acu-Link.com,2013-12-22 09:19:00,
2013-12-22 01:34:00,21.2,19.0,29.93,NE,45,0.0,-999.0,91,-99.99,,,0.00,Acu-Link.com,2013-12-22 09:34:00,
2013-12-22 01:49:00,21.2,19.0,29.93,East,90,0.0,-999.0,91,-99.99,,,0.00,Acu-Link.com,2013-12-22 09:49:00,
2013-12-22 02:05:00,21.2,19.2,29.93,South,180,0.0,-999.0,92,-99.99,,,0.00,Acu-Link.com,2013-12-22 10:05:00,
2013-12-22 02:20:00,21.2,19.0,29.93,NE,45,0.0,-999.0,91,-99.99,,,0.00,Acu-Link.com,2013-12-22 10:20:00,
2013-12-22 02:35:00,21.2,20.2,29.94,WSW,247,0.0,-999.0,96,-99.99,,,0.00,Acu-Link.com,2013-12-22 10:35:00,
2013-12-22 02:50:00,21.2,19.7,29.95,ESE,112,0.0,-999.0,94,-99.99,,,0.00,Acu-Link.com,2013-12-22 10:50:00,
2013-12-22 03:05:00,21.2,20.5,29.95,East,90,0.0,-999.0,97,-99.99,,,0.00,Acu-Link.com,2013-12-22 11:05:00,
2013-12-22 03:20:00,21.2,20.5,29.94,East,90,0.0,-999.0,97,-99.99,,,0.00,Acu-Link.com,2013-12-22 11:20:00,
2013-12-22 03:35:00,21.2,20.7,29.95,ESE,112,0.0,-999.0,98,-99.99,,,0.00,Acu-Link.com,2013-12-22 11:35:00,
2013-12-22 03:50:00,23.0,22.5,29.95,SSW,202,0.0,-999.0,98,-99.99,,,0.00,Acu-Link.com,2013-12-22 11:50:00,
2013-12-22 04:05:00,23.0,22.5,29.95,ESE,112,0.0,-999.0,98,-99.99,,,0.00,Acu-Link.com,2013-12-22 12:05:00,
2013-12-22 04:20:00,23.0,22.5,29.96,ESE,112,0.0,-999.0,98,-99.99,,,0.00,Acu-Link.com,2013-12-22 12:20:00,
2013-12-22 04:35:00,23.0,22.5,29.95,ESE,112,0.0,-999.0,98,-99.99,,,0.00,Acu-Link.com,2013-12-22 12:35:00,
2013-12-22 04:50:00,23.0,22.5,29.95,ESE,112,0.0,-999.0,98,-99.99,,,0.00,Acu-Link.com,2013-12-22 12:50:00,
2013-12-22 05:05:00,23.0,22.5,29.96,ESE,112,0.0,-999.0,98,-99.99,,,0.00,Acu-Link.com,2013-12-22 13:05:00,
2013-12-22 05:20:00,23.0,22.5,29.95,ESE,112,0.0,-999.0,98,-99.99,,,0.00,Acu-Link.com,2013-12-22 13:20:00,
2013-12-22 05:35:00,23.0,22.5,29.96,SSE,157,0.0,-999.0,98,-99.99,,,0.00,Acu-Link.com,2013-12-22 13:35:00,
2013-12-22 05:50:00,23.0,22.5,29.96,West,270,0.0,-999.0,98,-99.99,,,0.00,Acu-Link.com,2013-12-22 13:50:00,
2013-12-22 06:05:00,23.0,22.5,29.96,ESE,112,0.0,-999.0,98,-99.99,,,0.00,Acu-Link.com,2013-12-22 14:05:00,
2013-12-22 06:20:00,23.0,22.5,29.97,ESE,112,0.0,-999.0,98,-99.99,,,0.00,Acu-Link.com,2013-12-22 14:20:00,
2013-12-22 06:35:00,23.0,22.5,29.97,ESE,112,0.0,-999.0,98,-99.99,,,0.00,Acu-Link.com,2013-12-22 14:35:00,
2013-12-22 06:50:00,23.0,22.5,29.97,ESE,112,0.0,-999.0,98,-99.99,,,0.00,Acu-Link.com,2013-12-22 14:50:00,
2013-12-22 07:05:00,23.0,22.5,29.97,SE,135,0.0,-999.0,98,-99.99,,,0.00,Acu-Link.com,2013-12-22 15:05:00,
2013-12-22 07:20:00,23.0,22.5,29.97,ESE,112,0.0,-999.0,98,-99.99,,,0.00,Acu-Link.com,2013-12-22 15:20:00,
2013-12-22 07:35:00,23.0,22.5,29.97,ESE,112,0.0,-999.0,98,-99.99,,,0.00,Acu-Link.com,2013-12-22 15:35:00,
2013-12-22 07:50:00,23.0,22.5,29.97,South,180,0.0,-999.0,98,-99.99,,,0.00,Acu-Link.com,2013-12-22 15:50:00,
2013-12-22 08:06:00,23.0,22.5,29.97,SSE,157,0.0,-999.0,98,-99.99,,,0.00,Acu-Link.com,2013-12-22 16:06:00,
2013-12-22 08:21:00,23.0,22.5,29.97,ESE,112,0.0,-999.0,98,-99.99,,,0.00,Acu-Link.com,2013-12-22 16:21:00,
2013-12-22 08:36:00,23.0,22.5,29.97,ESE,112,0.0,-999.0,98,-99.99,,,0.00,Acu-Link.com,2013-12-22 16:36:00,
2013-12-22 08:51:00,23.0,22.5,29.97,East,90,0.0,-999.0,98,-99.99,,,0.00,Acu-Link.com,2013-12-22 16:51:00,
2013-12-22 09:06:00,24.8,24.3,29.97,South,180,0.0,-999.0,98,-99.99,,,0.00,Acu-Link.com,2013-12-22 17:06:00,
2013-12-22 09:21:00,26.6,25.6,29.97,SE,135,0.0,-999.0,96,-99.99,,,0.00,Acu-Link.com,2013-12-22 17:21:00,
2013-12-22 09:36:00,26.6,24.3,29.97,SE,135,0.0,-999.0,91,-99.99,,,0.00,Acu-Link.com,2013-12-22 17:36:00,
2013-12-22 09:51:00,28.4,25.6,29.98,SE,135,0.0,-999.0,89,-99.99,,,0.00,Acu-Link.com,2013-12-22 17:51:00,
2013-12-22 10:06:00,28.4,25.3,29.98,SSE,157,0.0,-999.0,88,-99.99,,,0.00,Acu-Link.com,2013-12-22 18:06:00,
2013-12-22 10:21:00,28.4,25.3,29.98,South,180,0.0,-999.0,88,-99.99,,,0.00,Acu-Link.com,2013-12-22 18:21:00,
2013-12-22 10:36:00,30.2,26.5,29.98,ESE,112,0.0,-999.0,86,-99.99,,,0.00,Acu-Link.com,2013-12-22 18:36:00,
2013-12-22 10:51:00,30.2,26.5,29.97,SSE,157,0.0,-999.0,86,-99.99,,,0.00,Acu-Link.com,2013-12-22 18:51:00,
2013-12-22 11:06:00,30.2,26.2,29.97,SSW,202,0.0,-999.0,85,-99.99,,,0.00,Acu-Link.com,2013-12-22 19:06:00,
2013-12-22 11:21:00,30.2,26.5,29.96,ESE,112,0.0,-999.0,86,-99.99,,,0.68,Acu-Link.com,2013-12-22 19:21:00,
2013-12-22 11:36:00,30.2,26.2,29.96,ESE,112,0.0,-999.0,85,-99.99,,,0.68,Acu-Link.com,2013-12-22 19:36:00,
2013-12-22 11:51:00,30.2,26.5,29.96,ESE,112,0.0,-999.0,86,-99.99,,,0.68,Acu-Link.com,2013-12-22 19:51:00,
2013-12-22 12:06:00,30.2,26.5,29.95,ESE,112,0.0,-999.0,86,-99.99,,,0.68,Acu-Link.com,2013-12-22 20:06:00,
2013-12-22 12:21:00,30.2,26.8,29.94,ESE,112,0.0,-999.0,87,-99.99,,,0.68,Acu-Link.com,2013-12-22 20:21:00,
2013-12-22 12:36:00,32.0,28.3,29.95,ESE,112,0.0,-999.0,86,-99.99,,,0.68,Acu-Link.com,2013-12-22 20:36:00,
2013-12-22 12:51:00,32.0,28.3,29.94,ESE,112,0.0,-999.0,86,-99.99,,,0.68,Acu-Link.com,2013-12-22 20:51:00,
2013-12-22 13:06:00,32.0,28.6,29.94,ESE,112,0.0,-999.0,87,-99.99,,,0.68,Acu-Link.com,2013-12-22 21:06:00,
2013-12-22 13:21:00,32.0,28.9,29.94,ENE,67,0.0,-999.0,88,-99.99,,,0.68,Acu-Link.com,2013-12-22 21:21:00,
2013-12-22 13:36:00,30.2,27.1,29.93,East,90,0.0,-999.0,88,-99.99,,,0.68,Acu-Link.com,2013-12-22 21:36:00,
2013-12-22 13:51:00,30.2,27.4,29.93,ESE,112,0.0,-999.0,89,-99.99,,,0.68,Acu-Link.com,2013-12-22 21:51:00,
2013-12-22 14:06:00,30.2,27.6,29.93,East,90,0.0,-999.0,90,-99.99,,,0.68,Acu-Link.com,2013-12-22 22:06:00,
2013-12-22 14:21:00,30.2,27.6,29.93,ESE,112,0.0,-999.0,90,-99.99,,,0.68,Acu-Link.com,2013-12-22 22:21:00,
2013-12-22 14:36:00,30.2,27.6,29.93,East,90,0.0,-999.0,90,-99.99,,,0.68,Acu-Link.com,2013-12-22 22:36:00,
2013-12-22 14:51:00,30.2,27.6,29.93,East,90,0.0,-999.0,90,-99.99,,,0.68,Acu-Link.com,2013-12-22 22:51:00,
2013-12-22 15:06:00,30.2,28.9,29.93,ENE,67,0.0,-999.0,95,-99.99,,,0.68,Acu-Link.com,2013-12-22 23:06:00,
2013-12-22 15:21:00,30.2,27.9,29.93,East,90,0.0,-999.0,91,-99.99,,,0.68,Acu-Link.com,2013-12-22 23:21:00,
2013-12-22 15:36:00,30.2,29.5,29.92,ESE,112,0.0,-999.0,97,-99.99,,,0.68,Acu-Link.com,2013-12-22 23:36:00,
2013-12-22 15:51:00,28.4,27.9,29.92,ESE,112,0.0,-999.0,98,-99.99,,,0.68,Acu-Link.com,2013-12-22 23:51:00,
2013-12-22 16:06:00,28.4,27.9,29.92,ESE,112,0.0,-999.0,98,-99.99,,,0.68,Acu-Link.com,2013-12-23 00:06:00,
2013-12-22 16:21:00,28.4,27.9,29.92,ESE,112,0.0,-999.0,98,-99.99,,,0.68,Acu-Link.com,2013-12-23 00:21:00,
2013-12-22 16:36:00,28.4,27.9,29.92,ESE,112,0.0,-999.0,98,-99.99,,,0.68,Acu-Link.com,2013-12-23 00:36:00,
2013-12-22 16:51:00,28.4,27.9,29.91,East,90,0.0,-999.0,98,-99.99,,,0.68,Acu-Link.com,2013-12-23 00:51:00,
2013-12-22 17:06:00,28.4,27.9,29.91,ESE,112,0.0,-999.0,98,-99.99,,,0.68,Acu-Link.com,2013-12-23 01:06:00,
2013-12-22 17:21:00,28.4,27.9,29.90,ENE,67,0.0,-999.0,98,-99.99,,,0.68,Acu-Link.com,2013-12-23 01:21:00,
2013-12-22 17:37:00,28.4,27.9,29.90,ESE,112,0.0,-999.0,98,-99.99,,,0.68,Acu-Link.com,2013-12-23 01:37:00,
2013-12-22 17:52:00,28.4,27.9,29.90,ESE,112,0.0,-999.0,98,-99.99,,,0.68,Acu-Link.com,2013-12-23 01:52:00,
2013-12-22 18:07:00,28.4,27.9,29.90,SE,135,0.0,-999.0,98,-99.99,,,0.68,Acu-Link.com,2013-12-23 02:07:00,
2013-12-22 18:22:00,28.4,27.9,29.89,East,90,0.0,-999.0,98,-99.99,,,0.68,Acu-Link.com,2013-12-23 02:22:00,
2013-12-22 18:37:00,28.4,27.9,29.88,ESE,112,0.0,-999.0,98,-99.99,,,0.68,Acu-Link.com,2013-12-23 02:37:00,
2013-12-22 18:52:00,28.4,27.9,29.87,ENE,67,0.0,-999.0,98,-99.99,,,0.68,Acu-Link.com,2013-12-23 02:52:00,
2013-12-22 19:07:00,28.4,27.9,29.87,SE,135,0.0,-999.0,98,-99.99,,,0.68,Acu-Link.com,2013-12-23 03:07:00,
2013-12-22 19:22:00,28.4,27.9,29.87,ENE,67,0.0,-999.0,98,-99.99,,,0.68,Acu-Link.com,2013-12-23 03:22:00,
2013-12-22 19:37:00,28.4,27.9,29.87,East,90,0.0,-999.0,98,-99.99,,,0.68,Acu-Link.com,2013-12-23 03:37:00,
2013-12-22 19:52:00,28.4,27.9,29.87,ESE,112,0.0,-999.0,98,-99.99,,,0.68,Acu-Link.com,2013-12-23 03:52:00,
2013-12-22 20:07:00,28.4,27.9,29.86,East,90,0.0,-999.0,98,-99.99,,,0.68,Acu-Link.com,2013-12-23 04:07:00,
2013-12-22 20:22:00,28.4,27.9,29.85,ESE,112,0.0,-999.0,98,-99.99,,,0.68,Acu-Link.com,2013-12-23 04:22:00,
2013-12-22 20:37:00,30.2,29.7,29.85,East,90,0.0,-999.0,98,-99.99,,,0.68,Acu-Link.com,2013-12-23 04:37:00,
2013-12-22 20:52:00,30.2,29.7,29.84,ESE,112,0.0,-999.0,98,-99.99,,,0.68,Acu-Link.com,2013-12-23 04:52:00,
2013-12-22 21:07:00,30.2,29.7,29.84,ESE,112,0.0,-999.0,98,-99.99,,,0.68,Acu-Link.com,2013-12-23 05:07:00,
2013-12-22 21:22:00,30.2,29.7,29.82,ESE,112,0.0,-999.0,98,-99.99,,,0.68,Acu-Link.com,2013-12-23 05:22:00,
2013-12-22 21:37:00,30.2,29.7,29.82,East,90,0.0,-999.0,98,-99.99,,,0.68,Acu-Link.com,2013-12-23 05:37:00,
2013-12-22 21:52:00,30.2,29.7,29.81,ESE,112,0.0,-999.0,98,-99.99,,,0.68,Acu-Link.com,2013-12-23 05:52:00,
2013-12-22 22:07:00,30.2,29.7,29.82,ESE,112,0.0,-999.0,98,-99.99,,,0.68,Acu-Link.com,2013-12-23 06:07:00,
2013-12-22 22:23:00,30.2,29.7,29.80,East,90,0.0,-999.0,98,-99.99,,,0.68,Acu-Link.com,2013-12-23 06:23:00,
2013-12-22 22:38:00,30.2,29.7,29.79,ESE,112,0.0,-999.0,98,-99.99,,,0.68,Acu-Link.com,2013-12-23 06:38:00,
2013-12-22 22:53:00,30.2,29.7,29.79,East,90,0.0,-999.0,98,-99.99,,,0.68,Acu-Link.com,2013-12-23 06:53:00,
2013-12-22 23:08:00,30.2,29.7,29.79,SE,135,0.0,-999.0,98,-99.99,,,0.68,Acu-Link.com,2013-12-23 07:08:00,
2013-12-22 23:23:00,30.2,29.7,29.78,SSW,202,0.0,-999.0,98,-99.99,,,0.68,Acu-Link.com,2013-12-23 07:23:00,
2013-12-22 23:38:00,30.2,29.7,29.77,ESE,112,0.0,-999.0,98,-99.99,,,0.68,Acu-Link.com,2013-12-23 07:38:00,
2013-12-22 23:53:00,30.2,29.7,29.76,ESE,112,0.0,-999.0,98,-99.99,,,0.68,Acu-Link.com,2013-12-23 07:53:00,